World > North America > United States > Wisconsin > Benoit  

Benoit, WI Hourly Weather Updates

Feedback E-mail the Weather

Quick WX

Benoit, WI Weather Maps

°F °C°F °C
Benoit Weather Map
UTC Time: 3/5/2024, 10:36
Your Time:

Benoit, WI Regional Weather

Expires:202403051100;;437475
ASUS43 KMKX 051020
RWRWI 

WISCONSIN REGIONAL WEATHER ROUNDUP
NATIONAL WEATHER SERVICE MILWAUKEE/SULLIVAN WI
400 AM CST TUE MAR 05 2024

NOTE: "FAIR" INDICATES FEW OR NO CLOUDS BELOW 12,000 FEET WITH NO
SIGNIFICANT WEATHER AND/OR OBSTRUCTIONS TO VISIBILITY.


WIZ001-002-006>008-014>016-023>028-051100-
NORTHWEST WISCONSIN
  
CITY           SKY/WX    TMP DP  RH WIND       PRES   REMARKS
SUPERIOR ARPT  CLEAR     23   9  56 CALM      30.14R TC  -5           
ASHLAND        CLEAR     22  12  65 CALM      30.11R TC  -6           
HAYWARD        CLEAR     16  12  84 CALM      30.09R TC  -9           
SIREN          CLEAR     16   9  75 CALM      30.10F TC  -9           
CUMBERLAND     CLEAR     28  12  50 NE6       30.06F WCI  22 TC  -2   
RICE LAKE      CLEAR     25  10  53 N6        30.08S WCI  18 TC  -4   
CHETEK         CLEAR     26  19  77 CALM      30.07R TC  -3           
LADYSMITH      CLEAR     22  14  72 CALM      30.08S TC  -6           
EAU CLAIRE     CLEAR     24  20  84 NE5       30.07R WCI  18 TC  -4   
MENOMONIE      CLEAR     28  15  57 CALM      30.08R TC  -2           
NEW RICHMOND   CLEAR     22  12  64 CALM      30.09R TC  -6           
OSCEOLA        CLEAR     22  16  78 CALM      30.11S TC  -6           
$$
 

SKY/WX - Weather  TMP - Temperature  DP - Dew Point  RH - Humidity
WIND - Wind Direction/Speed PRES - Barometric Pressure VSB - Visibility
WCI - Wind Chill Index E13G22 Wind - East Wind 13 mph/Gusts of 22 mph

Trending Headlines

Trending Entertainment Headlines

Benoit Radar Loop

Use the map search tool if you want to place a location marker on the radar map...

Benoit Quick Facts

National Two Day Weather Forecast


E-mail the Benoit Weather Forecast

Voice your opinion or tell us about page issues...